Location: Erp
(42.9417°N, 1.2009°E)
Time: 12:57:36
(UTC+00:00)

Cosmos 1959 Rocket - Pass Details

Date: 21 April 2026
Orbit: 946 x 997 km, 82.9° (Epoch: 12 May)

Event Time Altitude Azimuth Distance (km) Brightness Sun altitude
Rises 20:41:51 0° 216° (SW) 3,701 7.5 -19.7°
Reaches altitude 10° 20:44:41 10° 227° (SW) 2,753 6.9 -20.1°
Maximum altitude 20:50:12 31° 288° (WNW) 1,662 6.3 -20.8°
Drops below altitude 10° 20:55:43 10° 349° (N) 2,745 7.6 -21.6°
Sets 20:58:34 0° 360° (N) 3,689 8.2 -21.9°
